SL-8 DEB

Satellite information

Favourite Embed

Satellite Type and Status

DEBRISIN ORBIT

Key statistics

Satellite SL-8 DEB at a glance.

Uptime

12954

Days in orbit

Revolutions

≈ 14.6

Per day

Orbit

LEO

Low Earth Orbit

Inclination

74.0

Latest

Satellite identification and parameters

Extended collection of information and parameters for SL-8 DEB.

Object identification

Identified? True

Debris? True

Object name: SL-8 DEB

International designator: 1990-004D

Object number (NORAD): 20435

Object ID (CCSDS): 20435

Country: COMMONWEALTH OF INDEPENDENT STATES (CIS)

Current information (Y/N): Y

RCS size: SMALL

Orbital parameters

Period: 98.428 minutes

Inclination: 74.0234 deg

SMA: 7061.651 km

Apoapsis: 693.547 km

Periapsis: 673.485 km

RAAN: 252.2041 deg

Eccentricy: 0.0014205

Argument of periapsis: 335.5865 deg

Mean anomaly: 148.8518 deg

Mean motion: 14.62996814 rev/day

Mean motion (dot): 0.00001311 rev/day2

B* drag term: 0.00026144 1/REarth

Two-line elements (TLE)

Creation date: July 6, 2025, 6:05 p.m.

Reference frame: TEME

Reference center: EARTH

Epoch: July 6, 2025, 3:26 p.m. UTC

TLE line 0: 0 SL-8 DEB

TLE line 1: 1 20435U 90004D 25187.64337689 .00001311 00000-0 26144-3 0 9992

TLE line 2: 2 20435 74.0234 252.2041 0014205 335.5865 148.8518 14.62996814871853

Live tracking on map

Real-time ground track for satellite SL-8 DEB.

In-orbit conjunctions

A list of the most updated potential collisions computed for object SL-8 DEB.

Target Orbit TCA Probability of collision Miss distance Type
CZ-4C R/B SSO 2025-06-08 00:56:58 0.000141205 100.0 (m) ROCKET BODY
MAST SSO 2025-02-05 15:28:25 0.0002429329 450.0 (m) PAYLOAD
SAC C SSO 2024-09-25 20:17:21 0.0007465795 597.0 (m) PAYLOAD

Associated space launch

Military communications satellite

SL-8 DEB was lifted into orbit during the mission ‘Kosmos-3M | Strela-2M 47’, on board a Kosmos-3M space rocket.

The launch took place on Jan. 18, 1990, 12:52 p.m. from 133/3 (133L).

For more information about the launch, click the button.

Launch to space Kosmos-3M | Strela-2M 47
Kosmos-3M | Strela-2M 47

Agency: N/A

Status: Launch Successful

Launch date: Jan. 18, 1990, 12:52 p.m. UTC

Rocket: Kosmos-3M

Launch pad: 133/3 (133L)

Location: Plesetsk Cosmodrome, Russian Federation

...

Latest news about this satellite

There are no fresh news available about this satellite. Check back as we update our databases every day.


Newsletter sign-up

Weekly statistics, charts and insights to help you stay on top of the space industry.